This is the latest recevied weather packets stored in our database for station/object JG6YPS-13. If no packets are shown the sender has not sent any weather packets the latest 10 day(s).
| Time | Temp. | Humidity | Pressure | Rain* | Wind** | Luminosity | Snow |
|---|---|---|---|---|---|---|---|
| 1778075146 | 17.78° C | 84% | 1016.8 hPa | 0 mm | - | - | - |
| 1778074547 | 17.78° C | 84% | 1016.8 hPa | 0 mm | - | - | - |
| 1778073948 | 17.78° C | 83% | 1016.7 hPa | 0 mm | - | - | - |
| 1778073349 | 17.78° C | 84% | 1016.8 hPa | 0 mm | - | - | - |
| 1778072749 | 17.78° C | 83% | 1016.9 hPa | 0 mm | - | - | - |
| 1778072150 | 17.78° C | 82% | 1016.8 hPa | 0 mm | - | - | - |
| 1778071551 | 17.78° C | 82% | 1016.8 hPa | 0 mm | - | - | - |
| 1778070952 | 17.78° C | 83% | 1016.9 hPa | 0 mm | - | - | - |
| 1778070352 | 17.78° C | 81% | 1016.7 hPa | 0 mm | - | - | - |
| 1778069753 | 18.33° C | 81% | 1016.6 hPa | 0 mm | - | - | - |
| 1778069154 | 18.33° C | 80% | 1016.5 hPa | 0 mm | - | - | - |
| 1778068554 | 18.33° C | 80% | 1016.5 hPa | 0 mm | - | - | - |
| 1778067955 | 18.33° C | 80% | 1016.4 hPa | 0 mm | - | - | - |
| 1778067355 | 18.33° C | 80% | 1016.4 hPa | 0 mm | - | - | - |
| 1778066756 | 18.33° C | 79% | 1016.4 hPa | 0 mm | - | - | - |
| 1778066156 | 18.33° C | 80% | 1016.3 hPa | 0 mm | - | - | - |
| 1778065557 | 18.89° C | 78% | 1016.2 hPa | 0 mm | - | - | - |
| 1778064958 | 18.89° C | 78% | 1016.1 hPa | 0 mm | - | - | - |
| 1778064358 | 18.89° C | 78% | 1015.9 hPa | 0 mm | - | - | - |
| 1778063759 | 18.89° C | 79% | 1015.8 hPa | 0 mm | - | - | - |
| 1778063159 | 19.44° C | 79% | 1015.7 hPa | 0 mm | - | - | - |
| 1778062560 | 19.44° C | 76% | 1015.6 hPa | 0 mm | - | - | - |
| 1778061960 | 20.56° C | 69% | 1015.5 hPa | 0 mm | - | - | - |
| 1778061361 | 20.56° C | 68% | 1015.4 hPa | 0 mm | - | - | - |
| 1778060761 | 21.11° C | 67% | 1015.7 hPa | 0 mm | - | - | - |
* Rain latest hour (hover to see other rain measurements)
** Current wind speed in m/s (hover to see current wind gust speed)